Kimball, NE

4:13 PM MST on December 07, 2016 (GMT -0700)
Kimball Municipal-Arraj

Weather History for KIBM - May, 2013

Change the Weather History Date:

Monday, May 13, 2013

  Actual Average (KSNY) Record (KSNY)
Temperature  
Mean Temperature 68 °F 57 °F  
Max Temperature 87 °F 71 °F 91 °F (2013)
Min Temperature 48 °F 43 °F 25 °F (1966)
Degree Days  
Heating Degree Days 0 9  
Month to date heating degree days 136  
Since 1 July heating degree days 6048  
Cooling Degree Days 2 1  
Month to date cooling degree days 4  
Year to date cooling degree days 5  
Growing Degree Days 18 (Base 50)    
Moisture  
Dew Point 37 °F    
Average Humidity 37    
Maximum Humidity 73    
Minimum Humidity 13    
Precipitation  
Precipitation 0.00 in 0.09 in 1.51 in (1961)
Month to date precipitation 1.28  
Year to date precipitation 4.95  
Sea Level Pressure  
Sea Level Pressure 30.08 in    
Wind  
Wind Speed 6 mph (WSW)    
Max Wind Speed 14 mph    
Max Gust Speed 18 mph    
Visibility 10 miles    
Events      
T = Trace of Precipitation, MM = Missing Value Source: NWS Daily Summary

Daily Weather History Graph

Daily Weather History Graph

Search for Another Location

Airport or City:

Trip Planner

Search our weather history database for the weather conditions in past years. The results will help you decide how hot, cold, wet, or windy it might be!

Date:

Astronomy

May. 13, 2013 Rise Set
Actual Time 6:38 AM CDT 9:04 PM CDT
Civil Twilight 6:06 AM CDT 9:35 PM CDT
Nautical Twilight 5:28 AM CDT 10:14 PM CDT
Astronomical Twilight 4:45 AM CDT 10:58 PM CDT
Moon 9:25 AM CDT (5/13) No Moon Set
Length of Visible Light 15h 29m
Length of Day
14h 26m
Waxing Crescent, 12% of the Moon is Illuminated
May 13
Waxing Crescent
May 17
First Quarter
May 24
Full
May 31
Last Quarter
Jun 8
New

Hourly Weather History & Observations

Time (CDT) Temp. Dew Point Humidity Pressure Visibility Wind Dir Wind Speed Gust Speed Precip Events Conditions
12:15 AM 59.9 °F 40.8 °F 49% 30.08 in 10.0 mi SSE 3.5 mph - N/A   Scattered Clouds
12:35 AM 61.2 °F 39.6 °F 45% 30.08 in 10.0 mi SSW 9.2 mph - N/A   Clear
12:55 AM 58.6 °F 40.1 °F 50% 30.09 in 10.0 mi South 4.6 mph - N/A   Clear
1:15 AM 54.9 °F 40.5 °F 58% 30.09 in 10.0 mi Calm Calm - N/A   Clear
1:35 AM 52.9 °F 40.3 °F 62% 30.09 in 10.0 mi NE 3.5 mph - N/A   Clear
1:55 AM 51.6 °F 40.5 °F 66% 30.09 in 10.0 mi Calm Calm - N/A   Clear
2:15 AM 52.9 °F 39.7 °F 61% 30.09 in 10.0 mi Calm Calm - N/A   Clear
2:35 AM 56.5 °F 39.6 °F 53% 30.08 in 10.0 mi Calm Calm - N/A   Clear
2:55 AM 52.5 °F 39.6 °F 61% 30.08 in 10.0 mi South 3.5 mph - N/A   Clear
3:15 AM 51.8 °F 40.1 °F 64% 30.08 in 10.0 mi Calm Calm - N/A   Clear
3:35 AM 50.9 °F 40.1 °F 67% 30.08 in 10.0 mi SW 3.5 mph - N/A   Clear
3:55 AM 50.9 °F 40.3 °F 67% 30.08 in 10.0 mi West 4.6 mph - N/A   Clear
4:15 AM 48.7 °F 40.1 °F 72% 30.08 in 10.0 mi WSW 6.9 mph - N/A   Clear
4:35 AM 48.7 °F 39.6 °F 71% 30.08 in 10.0 mi West 6.9 mph - N/A   Clear
4:55 AM 50.2 °F 39.4 °F 66% 30.08 in 10.0 mi West 6.9 mph - N/A   Clear
5:15 AM 50.0 °F 39.7 °F 68% 30.08 in 10.0 mi West 6.9 mph - N/A   Clear
5:35 AM 48.4 °F 39.9 °F 73% 30.08 in 10.0 mi West 9.2 mph - N/A   Clear
6:15 AM 49.3 °F 40.6 °F 72% 30.08 in 10.0 mi West 9.2 mph - N/A   Clear
6:35 AM 50.2 °F 40.6 °F 70% 30.09 in 10.0 mi West 9.2 mph - N/A   Clear
6:55 AM 52.0 °F 40.1 °F 64% 30.09 in 10.0 mi WNW 11.5 mph - N/A   Clear
7:15 AM 53.1 °F 40.3 °F 62% 30.10 in 10.0 mi WNW 10.4 mph - N/A   Clear
7:35 AM 54.0 °F 40.5 °F 60% 30.11 in 10.0 mi WNW 10.4 mph - N/A   Clear
7:55 AM 55.8 °F 41.0 °F 58% 30.11 in 10.0 mi West 10.4 mph - N/A   Clear
8:15 AM 58.3 °F 41.0 °F 53% 30.12 in 10.0 mi West 9.2 mph - N/A   Clear
8:35 AM 61.3 °F 40.3 °F 46% 30.12 in 10.0 mi West 10.4 mph - N/A   Clear
8:55 AM 64.8 °F 39.7 °F 40% 30.12 in 10.0 mi WNW 9.2 mph - N/A   Clear
9:15 AM 67.8 °F 38.7 °F 34% 30.13 in 10.0 mi WNW 11.5 mph - N/A   Clear
9:17 AM 68.0 °F 37.4 °F 33% 30.13 in 10.0 mi WNW 11.5 mph - N/A   Clear
9:35 AM 70.5 °F 38.5 °F 31% 30.13 in 10.0 mi WNW 11.5 mph - N/A   Clear
9:55 AM 72.9 °F 39.2 °F 30% 30.13 in 10.0 mi WNW 13.8 mph - N/A   Clear
10:15 AM 75.4 °F 38.3 °F 26% 30.13 in 10.0 mi WNW 11.5 mph - N/A   Clear
10:35 AM 78.1 °F 36.3 °F 22% 30.13 in 10.0 mi NW 11.5 mph - N/A   Clear
10:55 AM 79.0 °F 35.1 °F 20% 30.13 in 10.0 mi NW 10.4 mph - N/A   Clear
11:15 AM 81.1 °F 32.7 °F 17% 30.13 in 10.0 mi NW 8.1 mph - N/A   Clear
11:35 AM 82.4 °F 31.6 °F 16% 30.13 in 10.0 mi NW 9.2 mph - N/A   Clear
11:55 AM 82.2 °F 29.8 °F 15% 30.14 in 10.0 mi WNW 6.9 mph - N/A   Clear
12:15 PM 83.3 °F 30.4 °F 15% 30.14 in 10.0 mi WNW 5.8 mph - N/A   Clear
12:35 PM 83.1 °F 30.2 °F 15% 30.13 in 10.0 mi WSW 4.6 mph - N/A   Clear
12:55 PM 83.7 °F 30.4 °F 15% 30.13 in 10.0 mi NW 6.9 mph - N/A   Clear
1:15 PM 84.6 °F 30.6 °F 14% 30.12 in 10.0 mi WSW 4.6 mph - N/A   Scattered Clouds
1:35 PM 85.3 °F 30.6 °F 14% 30.12 in 10.0 mi WSW 9.2 mph 18.4 mph N/A   Scattered Clouds
1:55 PM 83.7 °F 30.2 °F 14% 30.11 in 10.0 mi WNW 4.6 mph - N/A   Scattered Clouds
2:15 PM 85.1 °F 30.7 °F 14% 30.11 in 10.0 mi NW 3.5 mph - N/A   Scattered Clouds
2:35 PM 83.3 °F 29.7 °F 14% 30.11 in 10.0 mi Calm Calm - N/A   Scattered Clouds
3:35 PM 86.5 °F 30.9 °F 14% 30.10 in 10.0 mi WNW 8.1 mph 16.1 mph N/A   Scattered Clouds
3:55 PM 86.2 °F 31.3 °F 14% 30.08 in 10.0 mi WNW 4.6 mph - N/A   Clear
4:15 PM 86.2 °F 31.6 °F 14% 30.08 in 10.0 mi WSW 9.2 mph - N/A   Scattered Clouds
4:35 PM 86.2 °F 31.6 °F 14% 30.07 in 10.0 mi West 9.2 mph - N/A   Scattered Clouds
4:55 PM 86.7 °F 31.8 °F 14% 30.06 in 10.0 mi West 8.1 mph - N/A   Scattered Clouds
5:15 PM 87.8 °F 31.1 °F 13% 30.06 in 10.0 mi WSW 9.2 mph - N/A   Scattered Clouds
5:35 PM 87.4 °F 31.5 °F 13% 30.06 in 10.0 mi WSW 9.2 mph - N/A   Clear
5:55 PM 86.5 °F 31.1 °F 14% 30.05 in 10.0 mi West 4.6 mph - N/A   Clear
6:35 PM 84.2 °F 30.2 °F 14% 30.04 in 10.0 mi Calm Calm - N/A   Clear
7:15 PM 84.6 °F 31.5 °F 15% 30.03 in 10.0 mi SW 10.4 mph - N/A   Scattered Clouds
7:35 PM 83.8 °F 32.0 °F 15% 30.03 in 10.0 mi SW 6.9 mph - N/A   Scattered Clouds
7:55 PM 82.9 °F 35.1 °F 18% 30.03 in 10.0 mi South 8.1 mph - N/A   Clear
8:15 PM 80.2 °F 36.5 °F 21% 30.03 in 10.0 mi South 10.4 mph - N/A   Clear
8:35 PM 76.6 °F 37.8 °F 25% 30.03 in 10.0 mi South 9.2 mph - N/A   Clear
8:55 PM 74.7 °F 37.4 °F 26% 30.03 in 10.0 mi South 10.4 mph 16.1 mph N/A   Clear
9:15 PM 72.5 °F 37.6 °F 28% 30.03 in 10.0 mi South 13.8 mph - N/A   Clear
9:35 PM 70.5 °F 37.8 °F 30% 30.03 in 10.0 mi South 11.5 mph - N/A   Clear
9:55 PM 68.5 °F 38.1 °F 33% 30.03 in 10.0 mi South 10.4 mph - N/A   Clear
10:15 PM 67.1 °F 38.5 °F 35% 30.03 in 10.0 mi South 8.1 mph - N/A   Clear
10:55 PM 63.5 °F 39.4 °F 41% 30.03 in 10.0 mi South 9.2 mph - N/A   Clear
11:15 PM 62.4 °F 40.1 °F 44% 30.03 in 10.0 mi South 8.1 mph - N/A   Clear
11:35 PM 62.8 °F 40.5 °F 44% 30.02 in 10.0 mi SSW 6.9 mph - N/A   Clear
11:55 PM 61.2 °F 41.0 °F 47% 30.01 in 10.0 mi SSW 5.8 mph - N/A   Clear